IBE0257 LEMD-MPTO

Flight info

Callsign IBE0257
Flight time N/A
Altitude 36000
Route BARDI DCT RIVRO DCT ERPES DCT LENSI DCT 38N030W 35N040W 3130N05000W DCT SIFEN DCT QNEPA M597 KEEKA M597 JANMA M597 BETIR UM597 AGUJA LODOP1C
Aircraft A343/H-SDE2E3FGHIJ4J5M1RWXY/LB1D1

Departure

Time N/A
Airport Adolfo Suárez Madrid–Barajas Airport (LEMD)

Arrival

Time 2026-05-07 15:25
Airport Tocumen International Airport (MPTO)
Time Latitude Longitude Altitude Speed Heading
2026-05-07 14:26 23.23819 -63.67057 36140 ft 508 kts 224°
2026-05-07 14:27 23.13257 -63.76932 36138 ft 508 kts 224°
2026-05-07 14:27 22.91790 -63.96936 36141 ft 509 kts 224°
2026-05-07 14:27 22.81765 -64.07596 36138 ft 501 kts 237°
2026-05-07 14:28 22.73506 -64.19757 36140 ft 501 kts 238°
2026-05-07 14:28 22.57039 -64.44149 36140 ft 502 kts 238°
2026-05-07 14:29 22.40477 -64.68509 36138 ft 502 kts 238°
2026-05-07 14:29 22.23961 -64.92692 36136 ft 501 kts 238°
2026-05-07 14:30 22.10083 -65.12929 36133 ft 501 kts 238°
2026-05-07 14:30 21.93554 -65.36929 36133 ft 502 kts 238°
2026-05-07 14:31 21.76849 -65.61077 36127 ft 503 kts 238°
2026-05-07 14:31 21.60090 -65.85196 36126 ft 503 kts 238°
2026-05-07 14:32 21.43172 -66.09216 36127 ft 507 kts 234°
2026-05-07 14:32 21.24421 -66.31911 36123 ft 508 kts 233°
2026-05-07 14:33 21.05832 -66.54681 36118 ft 508 kts 233°
2026-05-07 14:33 20.87178 -66.77424 36109 ft 508 kts 233°
2026-05-07 14:34 20.68519 -67.00081 36115 ft 508 kts 233°
2026-05-07 14:34 20.49801 -67.22733 36459 ft 511 kts 233°
2026-05-07 14:34 20.40359 -67.34104 37100 ft 513 kts 233°
2026-05-07 14:35 20.30895 -67.45483 37741 ft 514 kts 234°
2026-05-07 14:35 20.21389 -67.56906 38103 ft 514 kts 234°
2026-05-07 14:35 20.11937 -67.68232 38105 ft 511 kts 234°
2026-05-07 14:36 19.93015 -67.90847 38111 ft 511 kts 234°
2026-05-07 14:36 19.74075 -68.13392 38105 ft 511 kts 234°
2026-05-07 14:37 19.55124 -68.35865 38101 ft 510 kts 233°
2026-05-07 14:37 19.26665 -68.69424 38100 ft 510 kts 233°
2026-05-07 14:38 19.07640 -68.91684 38099 ft 509 kts 233°
2026-05-07 14:38 18.88667 -69.13904 38092 ft 509 kts 232°
2026-05-07 14:39 18.69708 -69.36027 38097 ft 508 kts 232°
2026-05-07 14:39 18.50872 -69.58002 38102 ft 509 kts 233°
2026-05-07 14:40 18.31482 -69.79802 38097 ft 511 kts 230°
2026-05-07 14:40 18.11704 -70.01309 38086 ft 511 kts 231°
2026-05-07 14:41 17.91992 -70.22788 38085 ft 510 kts 231°
2026-05-07 14:41 17.72199 -70.44137 38078 ft 510 kts 230°
2026-05-07 14:42 17.52264 -70.65477 38073 ft 508 kts 230°
2026-05-07 14:42 17.32590 -70.86478 38069 ft 508 kts 230°
2026-05-07 14:43 17.12980 -71.07682 38064 ft 506 kts 230°
2026-05-07 14:43 16.93525 -71.28953 38061 ft 506 kts 230°
2026-05-07 14:44 16.73835 -71.50037 38056 ft 507 kts 229°
2026-05-07 14:44 16.54160 -71.70984 38061 ft 505 kts 229°
2026-05-07 14:45 16.34285 -71.91665 38042 ft 504 kts 228°
2026-05-07 14:45 16.14527 -72.12207 38041 ft 502 kts 228°
2026-05-07 14:46 15.94770 -72.32698 38042 ft 500 kts 227°
2026-05-07 14:46 15.75083 -72.53048 38031 ft 499 kts 227°
2026-05-07 14:47 15.55396 -72.73351 38028 ft 498 kts 227°
2026-05-07 14:47 15.35701 -72.93605 38026 ft 498 kts 227°
2026-05-07 14:48 15.16016 -73.13733 38021 ft 498 kts 227°
2026-05-07 14:48 14.95975 -73.33549 38016 ft 497 kts 225°
2026-05-07 14:49 14.76116 -73.53397 38014 ft 495 kts 227°
2026-05-07 14:49 14.56870 -73.73416 38003 ft 493 kts 227°
2026-05-07 14:50 14.37419 -73.93537 38003 ft 498 kts 227°
2026-05-07 14:50 14.17914 -74.13753 37993 ft 496 kts 227°
2026-05-07 14:51 13.98505 -74.33880 37989 ft 496 kts 227°
2026-05-07 14:51 13.79063 -74.53992 37985 ft 494 kts 227°
2026-05-07 14:52 13.59679 -74.73993 37991 ft 494 kts 227°
2026-05-07 14:52 13.40265 -74.93975 37974 ft 494 kts 227°
2026-05-07 14:53 13.20767 -75.13994 37978 ft 495 kts 227°
2026-05-07 14:53 13.01302 -75.33971 37978 ft 496 kts 226°
2026-05-07 14:54 12.81769 -75.53946 37970 ft 495 kts 226°
2026-05-07 14:54 12.62193 -75.73889 37963 ft 496 kts 226°
2026-05-07 14:55 12.42769 -75.93636 37964 ft 495 kts 225°
2026-05-07 14:55 12.23200 -76.13500 37965 ft 496 kts 225°
2026-05-07 14:56 12.03667 -76.33261 37963 ft 495 kts 225°
2026-05-07 14:56 11.84096 -76.53032 37957 ft 495 kts 225°
2026-05-07 14:57 11.64478 -76.72809 37950 ft 497 kts 225°
2026-05-07 14:57 11.44767 -76.92637 37947 ft 496 kts 225°
2026-05-07 14:58 11.25511 -77.12740 37953 ft 496 kts 227°
2026-05-07 14:58 11.06448 -77.33098 37954 ft 496 kts 226°
2026-05-07 14:59 10.87119 -77.53020 37957 ft 494 kts 225°
2026-05-07 14:59 10.67557 -77.72628 37957 ft 492 kts 225°
2026-05-07 15:00 10.48080 -77.92127 37961 ft 492 kts 225°
2026-05-07 15:00 10.28682 -78.11509 37965 ft 487 kts 225°
2026-05-07 15:01 10.22420 -78.17759 37963 ft 486 kts 225°
2026-05-07 15:01 10.19980 -78.20193 37772 ft 485 kts 225°
2026-05-07 15:01 10.17603 -78.22564 37096 ft 487 kts 225°
2026-05-07 15:02 10.15180 -78.24981 36338 ft 491 kts 225°
2026-05-07 15:02 10.12735 -78.27419 35620 ft 494 kts 225°
2026-05-07 15:02 10.10274 -78.29872 34888 ft 497 kts 224°
2026-05-07 15:02 10.07793 -78.32344 34156 ft 501 kts 224°
2026-05-07 15:03 10.05299 -78.34829 33331 ft 504 kts 224°
2026-05-07 15:03 10.02791 -78.37326 32474 ft 508 kts 224°
2026-05-07 15:03 10.00254 -78.39853 31607 ft 512 kts 224°
2026-05-07 15:03 9.97705 -78.42390 30826 ft 514 kts 224°
2026-05-07 15:04 9.95148 -78.44935 30042 ft 516 kts 224°
2026-05-07 15:04 9.92581 -78.47490 29070 ft 519 kts 224°
2026-05-07 15:04 9.90006 -78.50052 28306 ft 518 kts 224°
2026-05-07 15:04 9.87440 -78.52604 27630 ft 514 kts 223°
2026-05-07 15:05 9.84896 -78.55134 26975 ft 511 kts 223°
2026-05-07 15:05 9.82371 -78.57645 26325 ft 508 kts 223°
2026-05-07 15:05 9.79854 -78.60146 25672 ft 505 kts 223°
2026-05-07 15:05 9.77353 -78.62632 25003 ft 502 kts 223°
2026-05-07 15:06 9.74865 -78.65104 24350 ft 500 kts 223°
2026-05-07 15:06 9.72390 -78.67562 23704 ft 497 kts 223°
2026-05-07 15:06 9.69926 -78.70010 23061 ft 494 kts 223°
2026-05-07 15:06 9.67485 -78.72433 22460 ft 488 kts 223°
2026-05-07 15:07 9.65078 -78.74823 21881 ft 482 kts 223°
2026-05-07 15:07 9.62690 -78.77194 21245 ft 478 kts 223°
2026-05-07 15:07 9.60364 -78.79502 20677 ft 473 kts 223°
2026-05-07 15:07 9.58027 -78.81820 20143 ft 468 kts 223°
2026-05-07 15:08 9.55710 -78.84119 19607 ft 462 kts 223°
2026-05-07 15:08 9.53425 -78.86385 19078 ft 457 kts 223°
2026-05-07 15:08 9.51161 -78.88630 18555 ft 452 kts 223°
2026-05-07 15:08 9.48919 -78.90853 18006 ft 448 kts 223°
2026-05-07 15:09 9.46708 -78.93044 17382 ft 444 kts 223°
2026-05-07 15:09 9.44511 -78.95220 16762 ft 440 kts 223°
2026-05-07 15:09 9.42334 -78.97378 16114 ft 435 kts 223°
2026-05-07 15:09 9.40206 -78.99487 15432 ft 416 kts 223°
2026-05-07 15:10 9.38216 -79.01463 14942 ft 386 kts 222°
2026-05-07 15:10 9.36382 -79.03283 14719 ft 355 kts 222°
2026-05-07 15:10 9.34680 -79.04970 14516 ft 330 kts 222°
2026-05-07 15:10 9.33078 -79.06557 14338 ft 317 kts 221°
2026-05-07 15:11 9.31470 -79.08143 14232 ft 329 kts 221°
2026-05-07 15:11 9.29823 -79.09768 14168 ft 329 kts 222°
2026-05-07 15:11 9.28194 -79.11379 13933 ft 327 kts 221°
2026-05-07 15:11 9.26559 -79.12990 13605 ft 327 kts 221°
2026-05-07 15:12 9.24794 -79.14413 13280 ft 323 kts 212°
2026-05-07 15:12 9.22939 -79.15675 12851 ft 319 kts 210°
2026-05-07 15:12 9.21086 -79.16906 12347 ft 317 kts 210°
2026-05-07 15:12 9.19275 -79.18109 11895 ft 315 kts 211°
2026-05-07 15:13 9.17463 -79.19317 11449 ft 312 kts 211°
2026-05-07 15:13 9.15656 -79.20524 11021 ft 309 kts 211°
2026-05-07 15:13 9.13870 -79.21719 10606 ft 306 kts 211°
2026-05-07 15:13 9.12106 -79.22898 10195 ft 303 kts 211°
2026-05-07 15:14 9.10353 -79.24071 9770 ft 301 kts 211°
2026-05-07 15:14 9.08612 -79.25235 9373 ft 300 kts 211°
2026-05-07 15:14 9.06876 -79.26396 9057 ft 298 kts 211°
2026-05-07 15:14 9.05159 -79.27544 8744 ft 297 kts 212°
2026-05-07 15:15 9.03439 -79.28695 8416 ft 295 kts 212°
2026-05-07 15:15 9.01729 -79.29837 8075 ft 295 kts 211°
2026-05-07 15:15 8.99959 -79.30862 7774 ft 292 kts 206°
2026-05-07 15:15 8.98169 -79.31813 7466 ft 290 kts 206°
2026-05-07 15:16 8.96398 -79.32760 6995 ft 285 kts 207°
2026-05-07 15:16 8.94655 -79.33704 6335 ft 284 kts 207°
2026-05-07 15:16 8.92911 -79.34657 5762 ft 285 kts 207°
2026-05-07 15:16 8.91170 -79.35613 5442 ft 283 kts 208°
2026-05-07 15:17 8.89446 -79.36562 5148 ft 281 kts 208°
2026-05-07 15:17 8.87736 -79.37505 4826 ft 279 kts 208°
2026-05-07 15:17 8.86035 -79.38443 4483 ft 278 kts 208°
2026-05-07 15:17 8.84341 -79.39378 4131 ft 274 kts 208°
2026-05-07 15:18 8.82711 -79.40281 3776 ft 260 kts 209°
2026-05-07 15:18 8.81365 -79.41411 3542 ft 251 kts 235°
2026-05-07 15:18 8.80743 -79.43036 3486 ft 251 kts 265°
2026-05-07 15:18 8.80950 -79.44746 3494 ft 248 kts 289°
2026-05-07 15:19 8.81345 -79.45855 3499 ft 248 kts 293°
2026-05-07 15:19 8.82021 -79.47462 3482 ft 248 kts 297°
2026-05-07 15:19 8.83569 -79.49064 3500 ft 243 kts 336°
2026-05-07 15:19 8.85182 -79.49521 3493 ft 241 kts 352°
2026-05-07 15:20 8.86841 -79.49410 3491 ft 241 kts 18°
2026-05-07 15:20 8.87885 -79.48969 3500 ft 240 kts 28°
2026-05-07 15:20 8.89299 -79.48131 3401 ft 232 kts 32°
2026-05-07 15:20 8.90647 -79.47296 3124 ft 223 kts 31°
2026-05-07 15:21 8.91953 -79.46525 2803 ft 212 kts 29°
2026-05-07 15:21 8.93192 -79.45828 2568 ft 198 kts 28°
2026-05-07 15:21 8.94360 -79.45166 2286 ft 188 kts 29°
2026-05-07 15:21 8.95470 -79.44533 2029 ft 179 kts 29°
2026-05-07 15:22 8.96522 -79.43936 1792 ft 169 kts 28°
2026-05-07 15:22 8.97518 -79.43371 1610 ft 163 kts 29°
2026-05-07 15:22 8.98468 -79.42832 1408 ft 151 kts 29°
2026-05-07 15:22 8.99331 -79.42341 1206 ft 142 kts 29°
2026-05-07 15:23 9.00187 -79.41856 1031 ft 141 kts 29°
2026-05-07 15:23 9.01048 -79.41368 867 ft 142 kts 28°
2026-05-07 15:23 9.01911 -79.40877 704 ft 143 kts 29°
2026-05-07 15:23 9.02779 -79.40379 525 ft 144 kts 29°
2026-05-07 15:24 9.03660 -79.39890 326 ft 145 kts 29°
2026-05-07 15:24 9.04539 -79.39386 133 ft 144 kts 29°
2026-05-07 15:24 9.05388 -79.38906 37 ft 127 kts 30°
2026-05-07 15:24 9.05998 -79.38559 36 ft 74 kts 29°
2026-05-07 15:25 9.06234 -79.38424 35 ft 30 kts 29°
2026-05-07 15:25 9.06359 -79.38375 34 ft 18 kts
2026-05-07 15:25 9.06490 -79.38379 34 ft 19 kts 359°
2026-05-07 15:25 9.06624 -79.38385 34 ft 15 kts 342°
2026-05-07 15:26 9.06657 -79.38452 34 ft 7 kts 252°
2026-05-07 15:26 9.06611 -79.38487 34 ft 10 kts 206°
2026-05-07 15:26 9.06540 -79.38525 34 ft 12 kts 217°
2026-05-07 15:26 9.06543 -79.38577 34 ft 8 kts 295°
2026-05-07 15:27 9.06562 -79.38616 34 ft 4 kts 295°
2026-05-07 15:27 9.06569 -79.38629 34 ft 1 kts 298°